Location: *
(44.1392°S, 175.1921°W)
Time: 06:10:34
(UTC+00:00)

Daily predictions for brighter satellites

Satellite Brightness Start Highest point End
(mag) Time Altitude Azimuth Time Altitude Azimuth Time Altitude Azimuth
ATLAS 2AS CENTAUR R/B 4.5 15:21:46 19° S 15:21:46 19° S 15:23:54 10° SSE
SL-16 R/B 3.8 15:33:54 26° SSE 15:35:30 30° SE 15:40:29 10° ENE
Timation 2 Rocket 4.5 15:45:56 49° NNE 15:47:23 60° ENE 15:54:03 10° SSE
Cosmos 2237 Rocket 3.3 16:09:36 33° N 16:09:36 33° N 16:12:42 10° N
USA 281 4.1 16:02:32 10° SSE 16:06:47 35° SSW 16:06:47 35° SSW
ASTEX 1 4.3 16:04:11 10° SSE 16:09:01 48° E 16:13:48 10° NNE
Cosmos 407 Rocket 3.6 16:09:44 72° SE 16:09:44 72° SE 16:14:33 10° SSE
Lacrosse 5 rocket 3.0 16:14:39 28° NE 16:14:39 28° NE 16:16:33 10° NE
Cosmos 2227 Rocket 2.0 16:18:45 79° WSW 16:18:50 79° WSW 16:24:35 10° SSE
Cosmos 2058 Rocket 3.5 16:17:12 34° NNE 16:19:02 63° E 16:23:31 10° SSE
Cosmos 2098 Rocket 3.8 16:18:28 41° SE 16:19:22 49° E 16:23:56 10° NNE
Cosmos 389 Rocket 4.4 16:20:49 26° SE 16:20:49 26° SE 16:22:48 10° SSE
Cosmos 2297 Rocket 2.4 16:22:35 53° SSW 16:22:35 53° SSW 16:27:21 10° SSE
Cosmos 1825 3.2 16:22:36 43° ENE 16:22:36 43° ENE 16:25:30 10° NNE
Cosmos 405 Rocket 3.7 16:23:13 36° SSE 16:24:22 48° ESE 16:28:19 10° NNE
Nadezhda 4 Rocket 3.9 16:18:23 10° S 16:24:47 90° NW 16:31:08 10° N
SMAP 4.5 16:24:25 10° NE 16:28:45 38° ESE 16:33:07 10° S
USA 267 4.3 16:23:38 10° E 16:29:30 36° SSE 16:32:39 23° SSW
Envisat 2.8 16:26:33 10° N 16:31:39 72° WNW 16:32:25 61° SW
Cosmos 2082 3.9 16:28:24 10° NNW 16:34:08 75° ENE 16:39:54 10° SSE
Cosmos 1954 Rocket 4.3 16:31:57 10° N 16:37:14 67° ENE 16:42:34 10° SSE
SL-4 R/B 2.9 16:37:47 39° S 16:38:01 39° SSE 16:41:46 10° E
USA 306 4.3 16:39:02 27° S 16:39:02 27° S 16:42:12 10° SE
COSMOS 2455 2.9 16:44:38 42° WNW 16:46:23 57° SW 16:52:23 10° SSE
Meteor 2-1 Rocket 4.3 16:41:56 10° N 16:47:27 79° E 16:53:05 10° SSE
Cosmos 1356 4.5 16:50:05 34° N 16:50:05 34° N 16:52:11 10° N
SL-24 R/B 3.9 16:44:40 10° SSE 16:49:13 88° WSW 16:53:11 10° NNW
CZ-3 R/B 4.2 16:36:07 10° NW 16:49:15 23° N 16:55:02 10° NE
FALCON 9 DEB 4.0 16:51:44 37° SSE 16:51:48 37° SSE 16:54:49 10° E
Timation 1 Rocket 4.3 16:49:43 15° NW 16:54:49 71° WSW 17:00:55 10° SSE
USA 229 DEB 3.8 16:51:13 17° SSW 16:56:34 68° SE 17:02:58 10° NE
USA 229 3.9 16:51:18 17° SSW 16:56:40 68° SE 17:03:03 10° NE
CORIOLIS 4.4 16:59:51 10° NNE 17:05:12 74° ESE 17:10:41 10° S
Cosmos 1140 Rocket 3.9 17:04:16 34° W 17:05:31 39° WSW 17:10:28 10° S
Cosmos 2219 3.9 17:04:45 31° WSW 17:05:35 33° SW 17:10:46 10° S
H-2A R/B 4.3 17:01:20 10° ENE 17:05:45 26° ESE 17:10:08 10° S
USA 307 4.3 17:05:23 24° SSW 17:06:04 25° SSW 17:09:41 10° SE
CZ-2C R/B 4.0 17:02:59 10° NNE 17:08:23 53° ESE 17:13:32 10° S
ATLAS 2AS CENTAUR R/B 4.4 17:09:12 12° SSW 17:11:39 14° S 17:14:58 10° SSE
DELTA 2 R/B (1) 4.0 17:08:37 25° WNW 17:11:44 55° N 17:17:13 10° ENE
Meteor 2-10 Rocket 4.4 17:13:44 26° WSW 17:13:44 26° WSW 17:17:25 10° SSW
NOAA 12 4.1 17:08:19 10° N 17:13:39 71° WNW 17:19:04 10° SSW
Cosmos 2263 Rocket 3.0 17:09:49 10° N 17:15:21 54° ENE 17:20:56 10° SSE
NOSS 3-1 (A) 3.3 17:11:26 14° SW 17:17:00 82° SE 17:22:25 10° NE
X-37B 0.6 17:16:30 46° W 17:17:19 76° S 17:20:34 10° E
GENESIS II 4.1 17:17:05 24° SW 17:19:24 87° WNW 17:23:21 10° NNE
SL-16 R/B 2.5 17:15:50 18° SW 17:19:49 47° WNW 17:25:15 10° N
USA 308 4.4 17:18:34 20° SW 17:19:54 23° S 17:23:25 10° SE
NOSS 2-3 (E) 4.4 17:18:32 14° SW 17:24:29 65° WNW 17:29:46 10° NNE
Cosmos 1812 Rocket 3.5 17:21:01 10° N 17:25:24 90° ENE 17:29:52 10° S
Cosmos 1943 4.0 17:20:09 10° SSW 17:25:45 51° ESE 17:31:16 10° NE
Aureole 3 3.1 17:23:06 10° N 17:26:26 85° E 17:30:34 10° S
NOSS 3-1 (C) 3.5 17:23:35 17° SW 17:28:05 50° WNW 17:33:15 10° NNE
PAYLOAD B 4.3 17:22:45 10° N 17:28:20 66° WNW 17:34:01 10° SSW
CZ-4B R/B 3.2 17:22:48 10° NNE 17:28:25 90° E 17:33:59 10° SSW
Cosmos 1633 2.5 17:27:33 10° S 17:31:16 85° W 17:34:56 10° N
CZ-4 R/B 3.6 17:29:08 10° ENE 17:32:30 25° ESE 17:35:57 10° SSE
COSMO-SKYMED 1 3.6 17:28:32 10° SSE 17:32:50 50° E 17:37:06 10° N
ATLAS 5 CENTAUR R/B 4.1 17:28:56 10° SSW 17:33:06 19° SSE 17:36:49 10° ESE
FALCON 9 DEB 2.8 17:31:30 26° SW 17:33:08 89° SW 17:36:21 10° NE
Cosmos 1634 Rocket 4.1 17:27:10 10° NNW 17:33:24 60° WSW 17:39:46 10° S
ERBS 4.0 17:34:13 18° SW 17:34:44 18° SSW 17:37:12 10° SSE
H-2A R/B 2.8 17:31:30 10° SSE 17:35:41 56° E 17:39:55 10° N
Cosmos 2058 3.9 17:33:38 16° SW 17:35:58 26° W 17:39:29 10° NW
FALCON 9 DEB 2.8 17:35:51 24° WSW 17:37:38 77° NW 17:40:49 10° NE
Gbstr 26 Del rocket 2.7 17:35:55 17° WNW 17:38:45 67° SSW 17:42:51 10° SE
USA 215 3.3 17:32:06 10° SE 17:38:47 90° NE 17:45:23 10° NW
OE (NEXTSAT) 4.4 17:40:12 20° W 17:42:27 66° S 17:45:56 10° ESE
Okean O Rocket 1.5 17:38:17 10° N 17:42:40 77° WNW 17:47:08 10° SSW
Cosmos 1655 Rocket 4.4 17:42:14 10° S 17:48:45 72° E 17:55:09 10° NNE
Gblst 52 Del rocket 4.5 17:43:21 10° WNW 17:49:17 88° SW 17:56:08 10° ESE
Lacrosse 5 rocket 3.4 17:50:19 10° WNW 17:50:59 10° WNW 17:51:40 10° NW
Cosmos 1763 Rocket 3.7 17:48:30 10° SSW 17:53:43 54° WNW 17:58:50 10° N
YAOGAN 1 4.1 17:49:44 10° NE 17:53:48 39° ESE 17:57:54 10° S
Cosmos 2227 4.2 17:48:37 10° NNW 17:54:16 86° WSW 18:00:02 10° SSE
FALCON 9 DEB 3.0 17:51:49 15° WSW 17:54:22 71° NW 17:57:34 10° NE
Cosmos 389 Rocket 4.3 17:54:47 13° WSW 17:54:47 13° WSW 17:56:13 10° SW
Okean-O 4.4 17:50:40 10° NE 17:54:40 33° ESE 17:58:43 10° S
Cosmos 1825 4.2 17:57:28 11° W 17:57:28 11° W 17:57:52 10° W
Aureole 2 Rocket 3.3 17:55:49 14° W 17:56:54 17° WSW 17:58:46 10° SSW
CZ-2D R/B 3.2 17:55:17 10° N 17:59:09 69° WNW 18:03:06 10° SSW
Cosmos 921 Rocket 3.7 17:56:28 10° S 18:00:58 60° ESE 18:05:27 10° NNE
[s.n.48412] 4.2 18:00:32 12° W 18:02:29 22° NW 18:04:47 10° N
[s.n.48411] 4.2 18:00:34 12° W 18:02:31 22° NW 18:04:50 10° N
[s.n.48410] 4.2 18:00:46 12° W 18:02:43 22° NW 18:05:01 10° N
[s.n.48409] 4.2 18:00:51 12° W 18:02:49 22° NW 18:05:07 10° N
[s.n.48408] 4.2 18:01:00 12° W 18:02:57 22° NW 18:05:15 10° N
[s.n.48407] 4.2 18:01:05 12° W 18:03:03 22° NW 18:05:22 10° N
[s.n.48406] 4.2 18:01:12 12° W 18:03:11 22° NW 18:05:28 10° N
[s.n.48405] 4.2 18:01:20 12° W 18:03:18 22° NW 18:05:36 10° N
[s.n.48404] 4.2 18:01:20 12° W 18:03:18 22° NW 18:05:36 10° N
[s.n.48403] 4.2 18:01:27 12° W 18:03:26 22° NW 18:05:43 10° N
[s.n.48402] 4.2 18:01:36 12° W 18:03:31 21° NW 18:05:44 10° N
[s.n.48401] 4.2 18:01:46 12° W 18:03:39 21° NW 18:05:51 10° N
[s.n.48400] 4.3 18:01:49 12° W 18:03:49 22° NW 18:06:07 10° N
[s.n.48399] 4.3 18:01:51 12° W 18:03:50 22° NW 18:06:07 10° N
Cosmos 2227 Rocket 3.8 18:00:38 11° WSW 18:03:52 16° SW 18:07:19 10° S
[s.n.48398] 4.2 18:02:06 12° W 18:04:00 21° NW 18:06:11 10° N
[s.n.48397] 4.2 18:02:08 12° W 18:04:01 21° NW 18:06:13 10° N
[s.n.48396] 4.3 18:02:14 12° W 18:04:14 21° NW 18:06:30 10° N
[s.n.48395] 4.3 18:02:22 12° W 18:04:22 21° NW 18:06:38 10° N
[s.n.48394] 4.3 18:02:34 12° W 18:04:30 21° NW 18:06:42 10° N
[s.n.48393] 4.3 18:02:38 12° W 18:04:39 21° NW 18:06:56 10° N
[s.n.48392] 4.3 18:02:50 12° W 18:04:45 21° NW 18:06:55 10° N
Landsat 5 4.2 18:00:40 10° S 18:04:48 36° WSW 18:08:57 10° NW
[s.n.48391] 4.3 18:02:52 12° W 18:04:55 21° NW 18:07:11 10° N
[s.n.48390] 4.3 18:03:03 11° W 18:04:58 21° NW 18:07:10 10° N
[s.n.48389] 4.3 18:03:12 11° W 18:05:08 20° NW 18:07:17 10° N
[s.n.48388] 4.3 18:03:13 11° W 18:05:16 21° NW 18:07:32 10° N
[s.n.48387] 4.3 18:03:20 11° W 18:05:20 21° NW 18:07:31 10° N
Meteor 1-4 Rocket 2.5 18:01:52 10° NNW 18:05:25 64° WSW 18:08:58 10° S
[s.n.48386] 4.3 18:03:23 11° W 18:05:25 21° NW 18:07:40 10° N
[s.n.48385] 4.3 18:03:33 11° W 18:05:30 20° NW 18:07:40 10° N
[s.n.48384] 4.3 18:03:39 11° W 18:05:42 21° NW 18:07:56 10° N
Cosmos 841 Rocket 3.6 18:00:25 10° SSW 18:05:47 88° WNW 18:11:06 10° NNE
[s.n.48383] 4.3 18:03:45 11° W 18:05:49 21° NW 18:08:03 10° N
[s.n.48382] 4.3 18:03:52 11° W 18:05:56 21° NW 18:08:11 10° N
[s.n.48381] 4.3 18:04:00 11° W 18:06:05 21° NW 18:08:19 10° N
[s.n.48380] 4.3 18:04:11 11° W 18:06:09 20° NW 18:08:18 10° N
CZ-4 R/B 4.5 18:02:00 10° NNE 18:06:11 87° WNW 18:10:26 10° SSW
SMAP 4.2 18:02:21 10° NNW 18:06:11 25° W 18:10:03 10° SW
[s.n.48379] 4.3 18:04:18 11° W 18:06:17 20° NW 18:08:26 10° N
[s.n.48378] 4.3 18:04:25 11° W 18:06:24 20° NW 18:08:31 10° N
[s.n.48377] 4.3 18:04:29 11° W 18:06:34 21° NW 18:08:47 10° N
[s.n.48376] 4.4 18:04:32 11° W 18:06:38 21° NW 18:08:52 10° N
[s.n.48375] 4.4 18:04:41 11° W 18:06:47 21° NW 18:09:01 10° N
[s.n.48374] 4.4 18:04:47 11° W 18:06:54 20° NW 18:09:08 10° N
[s.n.48373] 4.4 18:04:54 11° W 18:07:01 20° NW 18:09:15 10° N
Cosmos 2297 Rocket 4.0 18:04:39 10° WSW 18:07:02 12° SW 18:09:25 10° SSW
[s.n.48372] 4.3 18:05:02 11° W 18:07:02 20° NW 18:09:09 10° N
[s.n.48371] 4.4 18:05:05 11° W 18:07:12 20° NW 18:09:25 10° N
[s.n.48370] 4.4 18:05:17 11° W 18:07:17 20° NW 18:09:26 10° N
[s.n.48369] 4.4 18:05:22 11° W 18:07:29 20° NW 18:09:41 10° N
[s.n.48368] 4.4 18:05:31 11° W 18:07:33 19° NW 18:09:40 10° N
[s.n.48367] 4.4 18:05:35 11° W 18:07:43 20° NW 18:09:57 10° N
[s.n.48366] 4.4 18:05:46 10° W 18:07:48 19° NW 18:09:56 10° N
[s.n.48365] 4.4 18:05:47 10° W 18:07:49 19° NW 18:09:57 10° N
[s.n.48364] 4.4 18:05:57 10° W 18:07:58 19° NW 18:10:03 10° N
[s.n.48363] 4.4 18:06:01 10° W 18:08:10 20° NW 18:10:22 10° N
[s.n.48362] 4.4 18:06:07 10° W 18:08:17 20° NW 18:10:28 10° N
[s.n.48361] 4.4 18:06:16 10° W 18:08:25 20° NW 18:10:37 10° N
[s.n.48360] 4.4 18:06:23 10° W 18:08:33 20° NW 18:10:43 10° N
[s.n.48359] 4.4 18:06:30 10° W 18:08:40 20° NW 18:10:52 10° N
[s.n.48358] 4.4 18:06:38 10° W 18:08:48 20° NW 18:10:58 10° N
[s.n.48357] 4.4 18:06:45 10° W 18:08:56 20° NW 18:11:06 10° N
[s.n.48356] 4.4 18:06:52 10° W 18:09:03 20° NW 18:11:13 10° N
[s.n.48355] 4.4 18:06:58 10° W 18:09:09 20° NW 18:11:20 10° N
[s.n.48354] 4.4 18:07:02 10° W 18:09:13 20° NW 18:11:24 10° N
[s.n.48353] 4.4 18:07:10 10° W 18:09:21 19° NW 18:11:31 10° N
USA 267 3.4 18:05:24 10° ENE 18:11:56 77° SE 18:18:33 10° SW
Meteor 2-21 Rocket 4.5 18:07:12 10° S 18:13:27 80° W 18:19:34 10° N
Cosmos 1939 Rocket 3.8 18:10:19 10° NNW 18:13:42 27° W 18:17:10 10° SW
Meteor 2-3 Rocket 3.9 18:09:20 10° SSW 18:15:04 57° W 18:20:46 10° N
H-2A R/B 3.2 18:11:16 10° NNW 18:15:12 34° W 18:19:03 10° SSW
IRIDIUM 106 4.4 18:11:03 10° N 18:16:19 83° W 18:21:39 10° S
SL-4 R/B 2.1 18:13:46 10° WSW 18:17:48 58° NW 18:21:30 10° NE
Cosmos-2242 3.5 18:16:01 10° NNW 18:20:13 42° WSW 18:24:29 10° S
SKYMED 2 3.8 18:16:37 10° S 18:20:55 51° WSW 18:25:10 10° NNW
Cosmos 2279 Rocket 4.4 18:15:05 10° NW 18:20:59 41° WSW 18:26:55 10° S
